Tiempo cada hora Aba

Hoy, 20 Octubre, Martes

Tiempo Temperatura Precipitaciones Viento Presión Humedad
00:00 +9°C° 0 mm 2 mps 760 mmHg 67%
01:00 +9°C° 0 mm 3 mps 760 mmHg 66%
02:00 +9°C° 0 mm 3 mps 760 mmHg 68%
03:00 +8°C° 0 mm 2 mps 760 mmHg 70%
04:00 +8°C° 0 mm 2 mps 760 mmHg 72%
05:00 +7°C° 0 mm 2 mps 760 mmHg 73%
06:00 +7°C° 0 mm 2 mps 760 mmHg 74%
07:00 +7°C° 0 mm 2 mps 760 mmHg 76%
08:00 +9°C° 0 mm 3 mps 761 mmHg 69%
09:00 +11°C° 0 mm 4 mps 761 mmHg 61%
10:00 +13°C° 0 mm 5 mps 761 mmHg 53%
11:00 +13°C° 0 mm 5 mps 760 mmHg 51%
12:00 +14°C° 0 mm 5 mps 760 mmHg 49%
13:00 +15°C° 0 mm 5 mps 760 mmHg 45%
14:00 +14°C° 0 mm 4 mps 760 mmHg 47%
15:00 +14°C° 0 mm 4 mps 759 mmHg 50%
16:00 +13°C° 0 mm 3 mps 759 mmHg 52%
17:00 +12°C° 0 mm 3 mps 759 mmHg 55%
18:00 +11°C° 0 mm 3 mps 759 mmHg 58%
19:00 +10°C° 0 mm 3 mps 759 mmHg 61%
20:00 +10°C° 0 mm 3 mps 758 mmHg 62%
21:00 +9°C° 0 mm 3 mps 758 mmHg 62%
22:00 +8°C° 0 mm 4 mps 758 mmHg 63%
23:00 +8°C° 0 mm 4 mps 758 mmHg 65%

Mañana, 21 Octubre, Miércoles

Tiempo Temperatura Precipitaciones Viento Presión Humedad
00:00 +8°C° 0 mm 4 mps 758 mmHg 67%
01:00 +7°C° 0 mm 4 mps 758 mmHg 69%
02:00 +7°C° 0 mm 4 mps 757 mmHg 70%
03:00 +7°C° 0 mm 4 mps 757 mmHg 70%
04:00 +7°C° 0 mm 4 mps 756 mmHg 71%
05:00 +7°C° 0 mm 4 mps 756 mmHg 72%
06:00 +8°C° 0 mm 3 mps 756 mmHg 72%
07:00 +8°C° 0 mm 3 mps 756 mmHg 73%
08:00 +10°C° 0 mm 4 mps 756 mmHg 67%
09:00 +13°C° 0 mm 5 mps 757 mmHg 61%
10:00 +15°C° 0 mm 6 mps 757 mmHg 55%
11:00 +16°C° 0 mm 6 mps 756 mmHg 53%
12:00 +17°C° 0 mm 6 mps 756 mmHg 52%
13:00 +19°C° 0 mm 6 mps 756 mmHg 51%
14:00 +17°C° 0 mm 5 mps 755 mmHg 54%
15:00 +17°C° 0 mm 5 mps 755 mmHg 57%
16:00 +17°C° 0 mm 4 mps 755 mmHg 59%
17:00 +15°C° 0 mm 4 mps 755 mmHg 62%
18:00 +14°C° 0 mm 4 mps 755 mmHg 64%
19:00 +13°C° 0 mm 4 mps 755 mmHg 66%
20:00 +13°C° 0 mm 4 mps 755 mmHg 67%
21:00 +12°C° 0 mm 4 mps 755 mmHg 68%
22:00 +12°C° 0 mm 4 mps 755 mmHg 69%
23:00 +12°C° 0 mm 4 mps 755 mmHg 72%

Pasado mañana, 22 Octubre, Jueves

Tiempo Temperatura Precipitaciones Viento Presión Humedad
00:00 +11°C° 0 mm 4 mps 755 mmHg 74%
01:00 +11°C° 0 mm 4 mps 756 mmHg 77%
02:00 +10°C° 0 mm 3 mps 756 mmHg 79%
03:00 +10°C° 0 mm 3 mps 756 mmHg 81%
04:00 +10°C° 0 mm 3 mps 756 mmHg 83%
05:00 +10°C° 0 mm 3 mps 756 mmHg 85%
06:00 +9°C° 0 mm 2 mps 756 mmHg 86%
07:00 +9°C° 0 mm 2 mps 756 mmHg 88%
08:00 +12°C° 0 mm 2 mps 757 mmHg 82%
09:00 +13°C° 0 mm 2 mps 757 mmHg 76%
10:00 +15°C° 0 mm 2 mps 757 mmHg 70%
11:00 +16°C° 0 mm 2 mps 757 mmHg 67%
12:00 +17°C° 0 mm 2 mps 757 mmHg 64%
13:00 +18°C° 0 mm 2 mps 756 mmHg 61%
14:00 +17°C° 0 mm 2 mps 756 mmHg 63%
15:00 +18°C° 0 mm 1 mps 756 mmHg 65%
16:00 +18°C° 0 mm 1 mps 755 mmHg 67%
17:00 +16°C° 0 mm 1 mps 755 mmHg 71%
18:00 +15°C° 0 mm 1 mps 755 mmHg 74%
19:00 +14°C° 0 mm 2 mps 756 mmHg 78%
20:00 +13°C° 0 mm 2 mps 756 mmHg 80%
21:00 +13°C° 0 mm 2 mps 756 mmHg 83%
22:00 +13°C° 0 mm 2 mps 756 mmHg 85%
23:00 +12°C° 0 mm 2 mps 756 mmHg 86%

23 Octubre, Viernes

Tiempo Temperatura Precipitaciones Viento Presión Humedad
00:00 +12°C° 0 mm 2 mps 755 mmHg 87%
01:00 +12°C° 0 mm 2 mps 755 mmHg 87%
02:00 +12°C° 0 mm 2 mps 755 mmHg 89%
03:00 +10°C° 0 mm 2 mps 755 mmHg 90%
04:00 +10°C° 0 mm 2 mps 755 mmHg 91%
05:00 +10°C° 0 mm 2 mps 755 mmHg 91%
06:00 +10°C° 0 mm 2 mps 755 mmHg 92%
07:00 +10°C° 0 mm 2 mps 755 mmHg 92%
08:00 +13°C° 0 mm 2 mps 755 mmHg 85%
09:00 +14°C° 0 mm 1 mps 755 mmHg 78%
10:00 +16°C° 0 mm 1 mps 755 mmHg 71%
11:00 +18°C° 0 mm 1 mps 755 mmHg 66%
12:00 +18°C° 0 mm 2 mps 754 mmHg 62%
13:00 +19°C° 0 mm 2 mps 754 mmHg 58%
14:00 +20°C° 0 mm 1 mps 753 mmHg 60%
15:00 +19°C° 0 mm 1 mps 753 mmHg 62%
16:00 +19°C° 0 mm 1 mps 753 mmHg 64%
17:00 +18°C° 0 mm 1 mps 752 mmHg 68%
18:00 +16°C° 0 mm 2 mps 752 mmHg 71%
19:00 +16°C° 0 mm 2 mps 752 mmHg 74%
20:00 +15°C° 0 mm 2 mps 752 mmHg 77%
21:00 +14°C° 0 mm 3 mps 752 mmHg 79%
22:00 +14°C° 0 mm 3 mps 751 mmHg 82%
23:00 +14°C° 0 mm 3 mps 751 mmHg 82%

24 Octubre, Sábado

Tiempo Temperatura Precipitaciones Viento Presión Humedad
00:00 +13°C° 0 mm 3 mps 751 mmHg 82%
01:00 +13°C° 0 mm 4 mps 751 mmHg 82%
02:00 +13°C° 0 mm 4 mps 751 mmHg 83%
03:00 +13°C° 0 mm 4 mps 751 mmHg 84%
04:00 +13°C° 0 mm 4 mps 751 mmHg 84%
05:00 +13°C° 0 mm 4 mps 752 mmHg 84%
06:00 +13°C° 0 mm 3 mps 752 mmHg 84%
07:00 +13°C° 0 mm 3 mps 752 mmHg 84%
08:00 +14°C° 0 mm 4 mps 753 mmHg 81%
09:00 +15°C° 0 mm 5 mps 753 mmHg 78%
10:00 +15°C° 0 mm 6 mps 754 mmHg 75%
11:00 +16°C° 0 mm 6 mps 754 mmHg 68%
12:00 +17°C° 0 mm 6 mps 754 mmHg 62%
13:00 +19°C° 0 mm 6 mps 754 mmHg 56%
14:00 +19°C° 0 mm 5 mps 755 mmHg 57%
15:00 +18°C° 0 mm 4 mps 755 mmHg 58%
16:00 +17°C° 0 mm 3 mps 755 mmHg 60%
17:00 +16°C° 0 mm 3 mps 755 mmHg 63%
18:00 +14°C° 0 mm 3 mps 755 mmHg 66%
19:00 +14°C° 0 mm 2 mps 756 mmHg 69%
20:00 +13°C° 0 mm 2 mps 756 mmHg 71%
21:00 +13°C° 0 mm 2 mps 756 mmHg 73%
22:00 +12°C° 0 mm 2 mps 756 mmHg 74%
23:00 +12°C° 0 mm 2 mps 756 mmHg 76%

25 Octubre, Domingo

Tiempo Temperatura Precipitaciones Viento Presión Humedad
00:00 +12°C° 0 mm 2 mps 756 mmHg 77%
01:00 +10°C° 0 mm 2 mps 756 mmHg 78%
02:00 +10°C° 0 mm 2 mps 756 mmHg 79%
03:00 +10°C° 0 mm 2 mps 756 mmHg 80%
04:00 +9°C° 0 mm 2 mps 756 mmHg 81%
05:00 +9°C° 0 mm 2 mps 756 mmHg 81%
06:00 +10°C° 0 mm 1 mps 756 mmHg 82%
07:00 +10°C° 0 mm 1 mps 756 mmHg 82%
08:00 +12°C° 0 mm 2 mps 756 mmHg 75%
09:00 +13°C° 0 mm 2 mps 756 mmHg 69%
10:00 +15°C° 0 mm 2 mps 756 mmHg 62%
11:00 +16°C° 0 mm 3 mps 755 mmHg 58%
12:00 +16°C° 0 mm 3 mps 755 mmHg 53%
13:00 +17°C° 0 mm 3 mps 754 mmHg 48%
14:00 +16°C° 0 mm 2 mps 754 mmHg 51%
15:00 +16°C° 0 mm 2 mps 754 mmHg 53%
16:00 +15°C° 0 mm 2 mps 753 mmHg 55%
17:00 +14°C° 0 mm 2 mps 753 mmHg 58%
18:00 +13°C° 0 mm 2 mps 753 mmHg 61%
19:00 +12°C° 0 mm 2 mps 753 mmHg 64%
20:00 +12°C° 0 mm 2 mps 753 mmHg 66%
21:00 +10°C° 0 mm 2 mps 753 mmHg 68%
22:00 +10°C° 0 mm 2 mps 753 mmHg 70%
23:00 +10°C° 0 mm 2 mps 753 mmHg 71%

26 Octubre, Lunes

Tiempo Temperatura Precipitaciones Viento Presión Humedad
00:00 +10°C° 0 mm 2 mps 752 mmHg 72%
01:00 +10°C° 0 mm 2 mps 752 mmHg 74%
02:00 +10°C° 0 mm 2 mps 752 mmHg 74%
03:00 +11°C° 0 mm 3 mps 751 mmHg 74%
04:00 +11°C° 0 mm 3 mps 751 mmHg 74%
05:00 +11°C° 0.1 mm 3 mps 751 mmHg 75%
06:00 +11°C° 0.1 mm 4 mps 751 mmHg 76%
07:00 +11°C° 0.1 mm 4 mps 750 mmHg 77%
08:00 +12°C° 0.1 mm 4 mps 750 mmHg 77%
09:00 +12°C° 0.1 mm 4 mps 750 mmHg 77%
10:00 +13°C° 0.1 mm 5 mps 750 mmHg 77%
11:00 +14°C° 0 mm 5 mps 750 mmHg 73%
12:00 +15°C° 0 mm 5 mps 749 mmHg 69%
13:00 +15°C° 0 mm 6 mps 749 mmHg 65%
14:00 +15°C° 0 mm 5 mps 749 mmHg 66%
15:00 +15°C° 0 mm 4 mps 748 mmHg 67%
16:00 +16°C° 0 mm 3 mps 748 mmHg 68%
17:00 +14°C° 0 mm 4 mps 748 mmHg 69%
18:00 +14°C° 0 mm 4 mps 749 mmHg 70%
19:00 +13°C° 0 mm 4 mps 749 mmHg 72%
20:00 +12°C° 0 mm 4 mps 749 mmHg 72%
21:00 +12°C° 0 mm 3 mps 749 mmHg 71%
22:00 +11°C° 0 mm 3 mps 750 mmHg 71%
23:00 +11°C° 0 mm 3 mps 750 mmHg 71%
Mostrar más

Necesitamos Su Consentimiento

Meteoprog y nuestros Proveedores de Servicios pueden almacenar y acceder a sus datos personales como cookies, identificadores de dispositivo u otras tecnologías similares de su dispositivo y procesar dichos datos para personalizar contenido y anuncios, además de ofrecer funciones de redes sociales y analizar el tráfico.

  • Almacenar y/o acceder a información en su dispositivo

    Se puede almacenar o acceder a cookies, identificadores de dispositivo u otra información de su dispositivo para los fines anteriormente indicados.

  • Anuncios y contenido personalizados, medición de anuncios y contenido, percepciones del público, y desarrollo de productos

    Los anuncios y el contenido pueden personalizarse en base a su perfil. Se pueden añadir más datos para personalizar mejor los anuncios y contenidos. Se puede medir el rendimiento de los anuncios y contenidos. Se puede obtener la percepción sobre el público que ha visto los anuncios y contenidos. Dichos datos pueden usarse para desarrollar o mejorar la experiencia del usuario, sistemas y software.

Al hacer clic en ‘Estoy De Acuerdo’ usted permitirá el uso de las cookies, identificadores de dispositivo, balizas web u otras tecnologías similares indicadas. Su configuración puede cambiarse desde el navegador de su dispositivo.

Para ciertos fines, los intereses legítimos pueden ser considerados por encima del consentimiento. Puede leer más sobre ello en nuestra Política de Privacidad y Cookies.